2016 UG = 2013 CB129

Initial reported observation by Pan-STARRS 1, Haleakala on 2013-02-15.
(Discoverer will be defined when the object is numbered. See this note on how discoverers are determined.)

Orbit

Orbit type: Mars-crosser

Note: WebGL enabled browser required.

epoch2020-12-17.0
epoch JD2459200.5
perihelion date2021-03-08.20704
perihelion JD2459281.70704
argument of perihelion (°)248.17111
ascending node (°)164.94871
inclination (°)28.39038
eccentricity0.4600078
perihelion distance (AU)1.4339972
Tisserand w.r.t. Jupiter3.1
ΔV w.r.t. Earth (km/sec)11.1
semimajor axis (AU)2.6555886
mean anomaly (°)341.50492
mean daily motion (°/day)0.22775220
aphelion distance (AU)3.877
period (years)4.33
P-vector [x]0.57115047
P-vector [y]0.81053851
P-vector [z]-0.12967062
Q-vector [x]-0.81150566
Q-vector [y]0.58132434
Q-vector [z]0.05933439
absolute magnitude17.8
phase slope0.15
uncertainty0
referenceMPEC 2020-U37
observations used69
oppositions3
arc length (days)2800
first opposition used2013
last opposition used2020
residual rms (arc-secs)0.21
perturbers coarse indicatorM-v
perturbers precise indicator0038h
first observation date used2013-02-15.0
last observation date used2020-10-16.0
computer nameMPCLINUX
JD of orbit computation2457770.291722
perihelion JD uncertainty (days)5.0819E-05
argument of perihelion uncertainty (°)3.8020E-05
ascending node uncertainty (°)8.4637E-06
inclination uncertainty (°)5.2759E-06
eccentricity uncertainty 4.2523E-08
perihelion distance uncertainty (AU)1.2889E-07
Minimum Orbit Intersection Distances (in AU)
for orbit epoch: 2459200.5, reference: E2020-U37
Mercury1.14933
Venus0.8063
Earth0.61289
Mars0.29029
Jupiter2.30554
Saturn6.3804
Uranus15.0763
Neptune27.0656

Observations

69 total observations over interval: 2013 02 15.47037 – 2020 10 16.25646
These data are available for download (format description).

Date (UT) J2000 RA J2000 Dec Magn Location Ref
2013 02 15.47037 10 53 41.043 -00 49 41.31 21.0 w F51 – Pan-STARRS 1, Haleakala MPS 456527
2013 02 15.48405 10 53 40.248 -00 49 25.96 21.2 w F51 – Pan-STARRS 1, Haleakala MPS 456527
2013 02 15.49773 10 53 39.464 -00 49 10.87 21.1 w F51 – Pan-STARRS 1, Haleakala MPS 456527
2013 02 15.51139 10 53 38.677 -00 48 55.75 21.4 w F51 – Pan-STARRS 1, Haleakala MPS 456527
2013 02 16.29277 10 52 55.77 -00 34 25.7 21.4 R 291 – LPL/Spacewatch II MPS 456527
2013 02 16.29838 10 52 55.45 -00 34 19.6 21.3 R 291 – LPL/Spacewatch II MPS 456527
2013 02 16.30399 10 52 55.14 -00 34 13.3 20.9 R 291 – LPL/Spacewatch II MPS 456527
2013 03 15.29455 10 28 46.99 +07 42 10.2 21.1 V G96 – Mt. Lemmon Survey MPS 1151459
2013 03 15.30031 10 28 46.77 +07 42 15.4 20.8 V G96 – Mt. Lemmon Survey MPS 1151459
2013 03 15.30620 10 28 46.48 +07 42 21.2 21.9 V G96 – Mt. Lemmon Survey MPS 1151459
2013 03 15.31208 10 28 46.20 +07 42 26.9 21.7 V G96 – Mt. Lemmon Survey MPS 1151459
2013 03 15.31798 10 28 45.98 +07 42 32.5 21.1 V G96 – Mt. Lemmon Survey MPS 1151459
2016 08 02.58198 01 49 46.594 +05 44 59.53 21.2 w F51 – Pan-STARRS 1, Haleakala MPS 747596
2016 08 02.59523 01 49 48.409 +05 44 50.33 21.0 w F51 – Pan-STARRS 1, Haleakala MPS 747596
2016 08 02.60851 01 49 50.242 +05 44 41.17 21.4 w F51 – Pan-STARRS 1, Haleakala MPS 747596
2016 10 19.51822 04 43 41.466 -33 46 25.52 18.8 i F51 – Pan-STARRS 1, Haleakala MPS 736332
2016 10 19.52725 04 43 42.186 -33 46 43.16 18.9 i F51 – Pan-STARRS 1, Haleakala MPS 736332
2016 10 19.53628 04 43 42.903 -33 47 00.71 18.8 i F51 – Pan-STARRS 1, Haleakala MPS 736332
2016 10 19.54529 04 43 43.613 -33 47 18.23 18.7 i F51 – Pan-STARRS 1, Haleakala MPS 736332
2016 10 20.335539 04 44 50.06 -34 12 28.4 18.9 R W85 – Cerro Tololo-LCO A MPS 736332
2016 10 20.339646 04 44 50.38 -34 12 36.1 18.7 R W85 – Cerro Tololo-LCO A MPS 736332
2016 10 20.342726 04 44 50.62 -34 12 42.1 18.8 R W85 – Cerro Tololo-LCO A MPS 736332
2016 10 20.55882 04 45 09.45 -34 19 31.0 18.8 R Q62 – iTelescope Observatory, Siding Spring MPS 736332
2016 10 20.56617 04 45 10.02 -34 19 45.0 18.8 R Q62 – iTelescope Observatory, Siding Spring MPS 736332
2016 10 20.57352 04 45 10.59 -34 19 58.6 18.8 R Q62 – iTelescope Observatory, Siding Spring MPS 736332
2016 10 20.63373 04 45 15.26 -34 21 55.5   E23 – Arcadia MPS 736332
2016 10 20.65359 04 45 16.80 -34 22 32.5 19.1 V E23 – Arcadia MPS 736332
2016 10 20.66053 04 45 17.39 -34 22 45.7 19.1 V E23 – Arcadia MPS 736332
2016 11 14.48851 05 05 38.422 -43 34 49.29 18.7 i F51 – Pan-STARRS 1, Haleakala MPS 745269
2016 11 14.49690 05 05 38.514 -43 34 55.15 18.7 i F51 – Pan-STARRS 1, Haleakala MPS 745269
2016 11 14.50531 05 05 38.607 -43 35 01.19 18.7 i F51 – Pan-STARRS 1, Haleakala MPS 745269
2016 11 14.51370 05 05 38.709 -43 35 07.32 19.0 i F51 – Pan-STARRS 1, Haleakala MPS 745269
2016 11 15.323360 05 05 52.43 -43 44 34.2 19.0 G H01 – Magdalena Ridge Observatory, Socorro MPS 745269
2016 11 15.331119 05 05 52.50 -43 44 39.2 18.9 G H01 – Magdalena Ridge Observatory, Socorro MPS 745269
2016 11 15.336948 05 05 52.57 -43 44 43.6 19.4 G H01 – Magdalena Ridge Observatory, Socorro MPS 745269
2016 11 15.344371 05 05 52.63 -43 44 48.4 18.9 G H01 – Magdalena Ridge Observatory, Socorro MPS 745269
2016 11 15.60256 05 05 56.75 -43 47 31.7 19.1 V Q62 – iTelescope Observatory, Siding Spring MPS 745269
2016 11 15.61089 05 05 56.83 -43 47 37.9 19.1 V Q62 – iTelescope Observatory, Siding Spring MPS 745269
2016 11 15.62024 05 05 56.93 -43 47 44.0 19.2 V Q62 – iTelescope Observatory, Siding Spring MPS 745269
2016 11 16.57473 05 06 10.50 -43 57 52.5 19.2 V Q62 – iTelescope Observatory, Siding Spring MPS 745269
2016 11 16.58278 05 06 10.58 -43 57 58.1 19.0 V Q62 – iTelescope Observatory, Siding Spring MPS 745269
2016 11 16.59141 05 06 10.63 -43 58 03.6 19.3 V Q62 – iTelescope Observatory, Siding Spring MPS 745269
2017 01 12.32451 05 08 04.730 -31 51 24.96 19.3 i F51 – Pan-STARRS 1, Haleakala MPS 758970
2017 01 12.33466 05 08 05.014 -31 51 06.18 19.2 i F51 – Pan-STARRS 1, Haleakala MPS 758970
2017 01 12.34481 05 08 05.270 -31 50 47.39 19.3 i F51 – Pan-STARRS 1, Haleakala MPS 758970
2017 01 16.31578 05 10 26.146 -29 44 23.30 19.5 i F51 – Pan-STARRS 1, Haleakala MPS 758970
2017 01 16.32559 05 10 26.478 -29 44 04.31 19.6 i F51 – Pan-STARRS 1, Haleakala MPS 758970
2017 01 16.33536 05 10 26.815 -29 43 45.14 19.5 i F51 – Pan-STARRS 1, Haleakala MPS 758970
2017 01 16.34515 05 10 27.147 -29 43 26.09 19.6 i F51 – Pan-STARRS 1, Haleakala MPS 758970
2020 08 19.31450 20 23 52.912 +05 52 19.86 21.0 w F51 – Pan-STARRS 1, Haleakala MPS 1229241
2020 08 19.32667 20 23 52.204 +05 52 06.88 20.8 w F51 – Pan-STARRS 1, Haleakala MPS 1229241
2020 08 19.35115 20 23 50.776 +05 51 41.17 21.2 w F51 – Pan-STARRS 1, Haleakala MPS 1229241
2020 08 22.35822 20 21 07.578 +04 57 16.23 21.1 w F52 – Pan-STARRS 2, Haleakala MPS 1229241
2020 08 22.36952 20 21 06.925 +04 57 03.60 20.9 w F52 – Pan-STARRS 2, Haleakala MPS 1229241
2020 08 22.38080 20 21 06.313 +04 56 51.09 21.0 w F52 – Pan-STARRS 2, Haleakala MPS 1229241
2020 08 22.39199 20 21 05.691 +04 56 38.68 21.1 w F52 – Pan-STARRS 2, Haleakala MPS 1229241
2020 09 06.24119 20 10 40.104 +00 02 12.97 21.0 w F52 – Pan-STARRS 2, Haleakala MPS 1245450
2020 09 06.25299 20 10 39.730 +00 01 58.33 21.1 w F52 – Pan-STARRS 2, Haleakala MPS 1245450
2020 09 06.26479 20 10 39.348 +00 01 43.88 21.2 w F52 – Pan-STARRS 2, Haleakala MPS 1245450
2020 09 13.24943 20 08 00.620 -02 22 12.38 21.1 w F52 – Pan-STARRS 2, Haleakala MPS 1245450
2020 09 13.27384 20 08 00.192 -02 22 42.25 21.3 w F52 – Pan-STARRS 2, Haleakala MPS 1245450
2020 09 16.23422 20 07 23.802 -03 23 05.60 21.0 w F52 – Pan-STARRS 2, Haleakala MPS 1245450
2020 09 16.24576 20 07 23.685 -03 23 19.66 21.0 w F52 – Pan-STARRS 2, Haleakala MPS 1245450
2020 09 16.25734 20 07 23.532 -03 23 33.72 21.0 w F52 – Pan-STARRS 2, Haleakala MPS 1245450
2020 09 16.26895 20 07 23.403 -03 23 47.92 21.2 w F52 – Pan-STARRS 2, Haleakala MPS 1245450
2020 10 16.21827 20 19 20.440 -12 13 29.07 21.7 w F51 – Pan-STARRS 1, Haleakala MPS 1253418
2020 10 16.23101 20 19 21.130 -12 13 39.94 21.7 w F51 – Pan-STARRS 1, Haleakala MPS 1253418
2020 10 16.24373 20 19 21.819 -12 13 50.90 21.8 w F51 – Pan-STARRS 1, Haleakala MPS 1253418
2020 10 16.25646 20 19 22.494 -12 14 01.73 21.4 w F51 – Pan-STARRS 1, Haleakala MPS 1253418